Regional Weather Roundup
Issued by NWS

Home | Current Version | Previous Version | Text Only | Print | Product List | Glossary On
Versions: 1 2 3 4 5 6 7 8 9 10 11 12 13 14 15 16 17 18 19 20 21 22 23 24 25 26 27 28 29 30 31 32 33 34 35 36 37 38 39 40 41 42 43 44 45 46 47 48 49 50
000
ASCA42 TJSJ 020810
RWRPR
PUERTO RICO/U.S. VIRGIN ISLANDS HOURLY WEATHER ROUNDUP
NATIONAL WEATHER SERVICE SAN JUAN PR
400 AM AST WED SEP 02 2015

PRZ001-004-020900-
PUERTO RICO

CITY           SKY/WX    TMP DP  RH WIND       PRES   REMARKS
SAN JUAN LMM   PTCLDY    79  75  89 CALM      30.00S
PONCE          PTCLDY    77  73  88 CALM      29.97
CEIBA          PTCLDY    81  79  94 CALM      30.01F
$$

PRZ006-007-020900-
U.S. VIRGIN ISLANDS

CITY           SKY/WX    TMP DP  RH WIND       PRES   REMARKS
CHARLOTTE AMA  CLEAR     82  77  83 E5        29.98F HX  91
CHRISTIANSTED  PTCLDY    81  77  89 NE3       29.99F
$$

HOURLY WEATHER ROUNDUP FOR THE NEWS MEDIA

CITY           SKY/WX    TMP DP  RH WIND       PRES   REMARKS
ORLANDO        PTCLDY    79  78  97 CALM      30.05F
NEW YORK       CLEAR     73  69  87 SW3       30.04S
NEWARK         CLEAR     74  66  76 CALM      30.02F
CHICAGO        PTCLDY    74  69  85 SW5       30.02S
HARTFORD       FOG       66  66 100 CALM      30.02S VSB 1/4
BOSTON         CLEAR     68  62  81 SW10      30.01S
DALLAS         CLEAR     78  68  71 S8        30.04S
PHILADELPHIA   CLEAR     74  70  87 CALM      30.03S
LOS ANGELES    MOCLDY    69  62  78 VRB5      29.97R
WASHINGTON DC  PTCLDY    71  67  87 CALM      30.04S



USA.gov is the U.S. government's official web portal to all federal, state and local government web resources and services.